Weather History for KGRI - July, 2013

Change the Weather History Date:

Monday, July 15, 2013

  Actual Average Record
Temperature  
Mean Temperature 75 °F 76 °F  
Max Temperature 87 °F 88 °F 116 °F (1934)
Min Temperature 63 °F 65 °F 50 °F (2014)
Degree Days  
Heating Degree Days 0 0  
Month to date heating degree days 0 0  
Since 1 June heating degree days 21 24  
Since 1 July heating degree days 0 0  
Cooling Degree Days 10 12  
Month to date cooling degree days 206 169  
Year to date cooling degree days 560 447  
Since 1 June cooling degree days 465 382  
Growing Degree Days 25 (Base 50)    
Moisture  
Dew Point 61 °F    
Average Humidity 64    
Maximum Humidity 93    
Minimum Humidity 34    
Precipitation  
Precipitation 0.00 in 0.11 in 1.28 in (2008)
Month to date precipitation 0.26 1.71  
Year to date precipitation 15.26 15.96  
Snow  
Snow 0.00 in 0.00 in - ()
Month to date snowfall 0.0 0.0  
Since 1 June snowfall 0.0 0.0  
Since 1 July snowfall 0.0 0.0  
Snow Depth 0.00 in    
Sea Level Pressure  
Sea Level Pressure 30.14 in    
Wind  
Wind Speed 8 mph (SE)    
Max Wind Speed 16 mph    
Max Gust Speed 28 mph    
Visibility 10 miles    
Events      
T = Trace of Precipitation, MM = Missing Value Source: NWS Daily Summary

Daily Weather History Graph

Daily Weather History Graph

Search for Another Location

Airport or City:

Trip Planner

Search our weather history database for the weather conditions in past years. The results will help you decide how hot, cold, wet, or windy it might be!

Date:

Astronomy

Jul. 15, 2013 Rise Set
Actual Time 6:14 AM CDT 9:03 PM CDT
Civil Twilight 5:41 AM CDT 9:36 PM CDT
Nautical Twilight 5:00 AM CDT 10:16 PM CDT
Astronomical Twilight 4:13 AM CDT 11:03 PM CDT
Moon 1:39 PM CDT (7/15) 12:13 AM CDT (7/15)
Length of Visible Light 15h 54m
Length of Day
14h 49m
Waxing Crescent, 45% of the Moon is Illuminated
Jul 15
Waxing Crescent
Jul 15
First Quarter
Jul 22
Full
Jul 29
Last Quarter
Aug 6
New

Hourly Weather History & Observations

Time (CDT) Temp. Heat Index Dew Point Humidity Pressure Visibility Wind Dir Wind Speed Gust Speed Precip Events Conditions
12:53 AM 68.0 °F - 63.0 °F 84% 30.14 in 10.0 mi SE 8.1 mph - N/A   Clear
1:53 AM 68.0 °F - 62.1 °F 81% 30.14 in 10.0 mi SE 6.9 mph - N/A   Clear
2:53 AM 66.9 °F - 61.0 °F 81% 30.14 in 10.0 mi SSE 6.9 mph - N/A   Clear
3:53 AM 66.0 °F - 61.0 °F 84% 30.14 in 10.0 mi SSE 4.6 mph - N/A   Partly Cloudy
4:53 AM 64.0 °F - 60.1 °F 87% 30.15 in 10.0 mi SSE 4.6 mph - N/A   Partly Cloudy
5:53 AM 63.0 °F - 60.1 °F 90% 30.16 in 9.0 mi SSE 5.8 mph - N/A   Clear
6:53 AM 64.0 °F - 60.1 °F 87% 30.16 in 7.0 mi SE 5.8 mph - N/A   Clear
7:53 AM 69.1 °F - 61.0 °F 75% 30.17 in 10.0 mi South 6.9 mph - N/A   Clear
8:53 AM 73.9 °F - 62.1 °F 66% 30.18 in 10.0 mi SSE 6.9 mph - N/A   Clear
9:53 AM 78.1 °F - 62.1 °F 58% 30.19 in 10.0 mi SSE 11.5 mph - N/A   Clear
10:53 AM 81.0 °F 81.7 °F 61.0 °F 50% 30.18 in 10.0 mi SE 10.4 mph - N/A   Clear
11:53 AM 82.0 °F 82.1 °F 59.0 °F 45% 30.18 in 10.0 mi SSE 10.4 mph - N/A   Clear
12:53 PM 84.9 °F 83.3 °F 54.0 °F 34% 30.17 in 10.0 mi SSE 11.5 mph - N/A   Clear
1:53 PM 84.9 °F 84.8 °F 60.1 °F 43% 30.16 in 10.0 mi SE 9.2 mph 16.1 mph N/A   Scattered Clouds
2:53 PM 84.9 °F 85.0 °F 61.0 °F 44% 30.14 in 10.0 mi ESE 6.9 mph - N/A   Partly Cloudy
3:53 PM 86.0 °F 85.7 °F 60.1 °F 41% 30.13 in 10.0 mi SSE 10.4 mph 19.6 mph N/A   Scattered Clouds
4:53 PM 87.1 °F 87.0 °F 61.0 °F 41% 30.12 in 10.0 mi ESE 10.4 mph - N/A   Clear
5:53 PM 86.0 °F 86.1 °F 61.0 °F 43% 30.10 in 10.0 mi SE 10.4 mph 18.4 mph N/A   Clear
6:53 PM 86.0 °F 85.7 °F 60.1 °F 41% 30.10 in 10.0 mi SE 9.2 mph - N/A   Clear
7:53 PM 82.9 °F 83.7 °F 62.1 °F 49% 30.10 in 10.0 mi SE 8.1 mph - N/A   Clear
8:53 PM 79.0 °F - 64.0 °F 60% 30.10 in 10.0 mi East 4.6 mph - N/A   Clear
9:53 PM 77.0 °F - 63.0 °F 62% 30.12 in 10.0 mi South 9.2 mph - N/A   Partly Cloudy
10:53 PM 77.0 °F - 60.1 °F 56% 30.13 in 10.0 mi SSE 4.6 mph - N/A   Mostly Cloudy
11:53 PM 75.0 °F - 62.1 °F 64% 30.15 in 10.0 mi South 11.5 mph - N/A   Partly Cloudy